This is the latest recevied weather packets stored in our database for station/object KJ5EHN. If no packets are shown the sender has not sent any weather packets the latest 1 day(s).
| Time | Temp. | Humidity | Pressure | Rain* | Wind** | Luminosity | Snow |
|---|---|---|---|---|---|---|---|
| 1778080800 | 12.22° C | 83% | 1015.4 hPa | 0 mm | - | - | - |
| 1778079588 | 12.22° C | 81% | 1015 hPa | 0 mm | - | - | - |
| 1778079284 | 12.22° C | 82% | 1015.2 hPa | 0 mm | - | - | - |
| 1778078982 | 11.67° C | 82% | 1014.8 hPa | 0 mm | - | - | - |
| 1778078678 | 12.22° C | 82% | 1015 hPa | 0 mm | - | - | - |
| 1778078073 | 11.67° C | 83% | 1014.8 hPa | 0 mm | - | - | - |
| 1778076563 | 11.67° C | 84% | 1014.2 hPa | 0 mm | - | - | - |
| 1778075046 | 11.67° C | 84% | 1013.9 hPa | 0 mm | - | - | - |
| 1778074743 | 11.67° C | 84% | 1013.8 hPa | 0 mm | - | - | - |
| 1778073532 | 11.11° C | 85% | 1013.4 hPa | 0 mm | - | - | - |
| 1778072925 | 11.11° C | 85% | 1013.3 hPa | 0 mm | - | - | - |
| 1778072621 | 11.11° C | 86% | 1013.3 hPa | 0 mm | - | - | - |
| 1778072319 | 11.11° C | 85% | 1013.5 hPa | 0 mm | - | - | - |
| 1778071412 | 11.11° C | 85% | 1013.2 hPa | 0 mm | - | - | - |
| 1778070808 | 11.11° C | 85% | 1013.3 hPa | 0 mm | - | - | - |
| 1778069900 | 11.11° C | 86% | 1013.1 hPa | 0 mm | - | - | - |
| 1778068387 | 11.11° C | 89% | 1012.6 hPa | 0 mm | - | - | - |
| 1778067782 | 11.11° C | 90% | 1012.5 hPa | 0 mm | - | - | - |
| 1778066874 | 11.11° C | 89% | 1012.2 hPa | 0 mm | - | - | - |
| 1778065361 | 11.67° C | 86% | 1011.7 hPa | 0 mm | - | - | - |
| 1778065057 | 11.67° C | 84% | 1011.9 hPa | 0 mm | - | - | - |
| 1778063544 | 11.67° C | 82% | 1011.4 hPa | 0 mm | - | - | - |
| 1778060518 | 12.22° C | 79% | 1010.8 hPa | 0 mm | - | - | - |
| 1778060217 | 12.22° C | 78% | 1010.8 hPa | 0 mm | - | - | - |
| 1778059611 | 12.22° C | 78% | 1010.7 hPa | 0 mm | - | - | - |
* Rain latest hour (hover to see other rain measurements)
** Current wind speed in m/s (hover to see current wind gust speed)